Regional Weather Roundup
Issued by NWS

Home | Current Version | Previous Version | Text Only | Print | Product List | Glossary Off
Versions: 1 2 3 4 5 6 7 8 9 10 11 12 13 14 15 16 17 18 19 20 21 22 23 24 25 26 27 28 29 30 31 32 33 34 35 36 37 38 39 40 41 42 43 44 45 46 47 48 49 50

000
ASUS43 KLOT 242121
RWRIL

ILLINOIS REGIONAL WEATHER ROUNDUP
NATIONAL WEATHER SERVICE CHICAGO/ROMEOVILLE IL
400 PM CDT SUN MAY 24 2015

NOTE: "FAIR" INDICATES FEW OR NO CLOUDS BELOW 12,000 FEET WITH NO
SIGNIFICANT WEATHER AND/OR OBSTRUCTIONS TO VISIBILITY.

* THESE STATIONS ARE NOT UNDER NWS QUALITY CONTROL. THEY ALSO MAY NOT
  REPORT WEATHER SUCH AS PRECIPITATION OR FOG.

ILZ001-002-007-009-015-016-024-242200-
NORTHWEST ILLINOIS

CITY           SKY/WX    TMP DP  RH WIND       PRES   REMARKS
MOLINE         LGT RAIN  76  69  79 S7        29.88F
STERLING*      CLOUDY    79  66  65 S8        29.91F HX  81
SAVANNA*       CLOUDY    70  64  80 E10       29.91F
$$

ILZ003-004-008-010-011-017-018-242200-
NORTH CENTRAL ILLINOIS

CITY           SKY/WX    TMP DP  RH WIND       PRES   REMARKS
ROCKFORD       LGT RAIN  68  62  81 E13       29.97F
FREEPORT*      CLOUDY    66  62  85 E10       29.97F
ROCHELLE*      CLOUDY    71  67  88 SE14      29.96F
DE KALB*       CLOUDY    67  63  87 E9        30.00F
PERU*          PTSUNNY   78  70  74 SE9       29.94F HX  81
$$

ILZ005-006-012>014-019>023-242200-
NORTHEAST ILLINOIS

CITY           SKY/WX    TMP DP  RH WIND       PRES   REMARKS
CHICAGO-OHARE  LGT RAIN  69  55  60 NE7       30.00F
CHICAGO-MIDWAY LGT RAIN  70  57  63 E10       29.99F
AURORA         LGT RAIN  69  63  81 E9        30.00F
LANSING*       RAIN      78  58  50 S16G23    30.00F
JOLIET*        RAIN      70  69  96 W3G12     30.00R
WAUKEGAN       LGT RAIN  57  50  77 E12       30.02F
DUPAGE AIRPORT TSTM      67  61  81 E5        30.01R
KANKAKEE*      PTSUNNY   82  64  56 S16G28    29.99F HX  83
WHEELING       RAIN      64  53  67 NE7       30.02F
MORRIS*        CLOUDY    71  68  92 SE7       29.97F
ROMEOVILLE*    TSTM      69  65  87 W15G29    30.02R
NORTHERLY ISL    N/A     59  50  72 NE2         N/A
$$

LMZ740>746-242200-
SOUTHERN LAKE MICHIGAN

STATION/POSITION SKY/WX   TEMP    WIND        PRES    VSBY  WAVE
                          AIR SEA DIR/SP/G                  HT/PER
                          (F)     (DEG/KT/KT) (MB)    (MI)  (FT/S)
SOUTHERN BUOY              46 38   70/ 12/ 14 1018.0F         0
HARRISON CRIB              57      80/ 18/ 21   N/A
BURNHAM HARBOR             59      70/ 10/ 10   N/A
CALUMET HARBOR             61      70/  6/ 10   N/A
BURNS HARBOR               81     150/  9/ 16 1017.3F
MICHIGAN CITY              80     120/ 14/ 16   N/A
MICHIGAN CITY 6N           70 54  160/ 10/ 16   N/A           1
ST. JOSEPH                 69 55  140/ 10/ 12   N/A           1
$$

ILZ025>027-034>036-040-047-049-050-058-095>099-242200-
WEST-CENTRAL ILLINOIS

CITY           SKY/WX    TMP DP  RH WIND       PRES   REMARKS
QUINCY         PTSUNNY   81  65  58 S15G24    29.86F HX  83
GALESBURG*     PTSUNNY   79  64  59 S16G25    29.89F HX  81
MACOMB*        PTSUNNY   83  64  52 S21       29.90F HX  84
JACKSONVILLE*  MOSUNNY   87  63  44 S17G31    29.90F HX  87
PITTSFIELD*    MOSUNNY   84  64  50 S17G26    29.89F HX  85
$$

ILZ028>032-037-038-041>044-048-051>054-059>061-242200-
CENTRAL ILLINOIS

CITY           SKY/WX    TMP DP  RH WIND       PRES   REMARKS
PONTIAC        PTSUNNY   86  65  48 S20G30    29.96F HX  88
BLOOMINGTON    PTSUNNY   85  65  51 S30       29.97F HX  86
DECATUR        PTSUNNY   83  62  49 S20G30    29.97F HX  84
PEORIA         CLOUDY    82  64  54 S14       29.92F HX  83
LACON*         PTSUNNY   81  67  63 S10G17    29.92F HX  83
LINCOLN*       PTSUNNY   84  61  45 S23G32    29.92F HX  84
SPRINGFIELD    PTSUNNY   87  63  44 S21G35    29.94F HX  88
TAYLORVILLE    PTSUNNY   82  63  51 S23G30    29.96F HX  83
$$

ILZ033-039-045-046-055>057-062-063-242200-
EAST-CENTRAL ILLINOIS

CITY           SKY/WX    TMP DP  RH WIND       PRES   REMARKS
CHAMPAIGN      PTSUNNY   85  60  42 S22G32    29.99F HX  85
DANVILLE*      MOSUNNY   84  61  46 S20G28    30.00F HX  84
RANTOUL*       PTSUNNY   85  61  44 S21G29    29.99F HX  86
MATTOON        MOSUNNY   82  62  50 S17G26    30.01F HX  83
PARIS*         PTSUNNY   84  60  44 S20       30.04F HX  84
$$

ILZ079-100>102-242200-
SOUTHWEST ILLINOIS

CITY           SKY/WX    TMP DP  RH WIND       PRES   REMARKS
BELLEVILLE     PTSUNNY   82  66  58 S21G28    29.93F HX  84
CAHOKIA*       PTSUNNY   83  64  52 S13G24    29.92F HX  84
SPARTA*        PTSUNNY   80  65  59 S17G26    29.97F HX  82
$$

ILZ064>066-069>071-074>076-080>082-084>086-088>090-092>094-242200-
SOUTH-CENTRAL ILLINOIS

CITY           SKY/WX    TMP DP  RH WIND       PRES   REMARKS
CARBONDALE     MOSUNNY   83  63  50 S17G32    29.98F HX  84
CAIRO*         PTSUNNY   84  64  49 SE17G24   30.00F HX  85
EFFINGHAM*     PTSUNNY   83  59  43 SE13      30.02F HX  83
MARION         CLOUDY    84  66  54 S14G26    30.00F HX  86
MT. VERNON     MOSUNNY   84  64  51 S14G22    30.00F HX  86
CENTRALIA*     PTSUNNY   85  60  42 S15G24    29.98F HX  85
SALEM*         PTSUNNY   87  62  43 SE12G18   29.99F HX  87
METROPOLIS*    MOSUNNY   84  65  52 S10G17    30.00F HX  86
$$

ILZ067-068-072-073-078-083-087-091-242200-
SOUTHEAST ILLINOIS

CITY           SKY/WX    TMP DP  RH WIND       PRES   REMARKS
LAWRENCEVILLE  PTSUNNY   84  62  47 S18G30    30.05F HX  85
FLORA*         MOSUNNY   84  62  46 S20G26    30.02F HX  85
FAIRFIELD*     PTSUNNY   84  63  48 S16G23    30.01F HX  85
HARRISBURG*    MOSUNNY   85  63  48 S16G22    30.04F HX  85
ROBINSON*      FAIR      84  59  42 S16       30.06F HX  84
CARMI*         PTSUNNY   86  55  35 SE18      30.02F HX  84
$$

ABBREVIATIONS USED IN REMARKS
   TC - TEMPERATURE IN CELSIUS
  WCI - WIND CHILL INDEX
   HX - HEAT INDEX
  VSB - VISIBILITY
$$




USA.gov is the U.S. government's official web portal to all federal, state and local government web resources and services.